FENGYUN 1C DEB, 31895

Orbit data source: Space-Track

FENGYUN 1C DEB, 31895 is space debris in SSO originally from a launch on Mon, 10 May 1999 UTC launched from the Taiyaun Space Center, China (TSC). Fengyun 1C debris stems from the Chinese weather satellite Fengyun-1C, which was intentionally destroyed by a Chinese anti-satellite missile in 2007. This event dramatically increased the amount of space debris, with thousands of trackable fragments posing hazards to satellites and human spaceflight. The Fengyun 1C debris cloud has become a focal point in discussions about space sustainability and the need for international regulations to prevent the creation of new debris.

Loading next visibility...
Identifier
31895, 1999-025CKW
Orbit
SSO
Country
Flag of CNCN / PRC
Related business
Manufacturer
Unknown
Mission
Spacecraft
Bus & Motor
Unknown
Mass
Unknown
Launch date (UTC)
1999-05-10 (27 years ago)
Launch vehicle
Unknown
Launch site
Taiyaun Space Center, China (TSC)
Object type
Payload
Rocket body
Debris
Shape & HBR
Unknown shape, 0.1 m
Radar Cross Section
Small (<0.1 m²)

Expand to show TLE details & history
Last TLE update: 1 day ago

TLE from 1 day ago
0 FENGYUN 1C DEB
1 31895U 99025CKW 26262.27767697  .00001297  00000-0  11351-2 0  9992
2 31895  99.0767 283.5102 0223491 205.7459 153.2431 13.76682578657550
Epoch: 2026-09-19T06:39Z
TLE epoch observation values (Epoch: 2026-09-19T06:39:51.290Z)
Latitude
-0.00001°
Longitude
-174.64202°
Altitude
1,126.024 km
Speed
7.216 km/s
True Right ascension
18h 54m 02s
True Declination
0° 00' 00"
Sunlit
Object was in daylight at epoch
Visualization orbit readout
Latitude
Unknown
Longitude
Unknown
Altitude
Unknown
Speed
Unknown
Apparent Right ascension
Unknown
Apparent Declination
Unknown
Sunlit
N/A
Visualization observer readout
Local Sidereal Time
03:10:36
Azimuth
Unknown
Elevation
Unknown
Doppler factor
Unknown
Orbital elements
Apogee altitude
1,137.198 km
Perigee altitude
808.62 km
Semi-major axis
7,351.046 km
Eccentricity
0.02235
Inclination
99.0767°
RAAN
283.5102°
Arg. of periapsis
205.7459°
True anomaly
154.36793°
Mean anomaly
153.2431°
Eccentric anomaly
153.80829°
Mean motion
3.44365 °/min
Orbital period
104.54 mins
BSTAR
0.0011351
Loading maneuver chart data...
Computing Atmospheric mass density...

Documentation

Showing up to 5 results
|